Mount Holly, NJ

8:24 AM EST on December 15, 2019 (GMT -0500)
South Jersey Regional

Weather History for KVAY - August, 2019

Change the Weather History Date:

Wednesday, August 21, 2019

  Actual Average (KPNE) Record (KPNE)
Temperature  
Mean Temperature 82 °F -  
Max Temperature 91 °F 82 °F 93 °F (2005)
Min Temperature 72 °F 65 °F 59 °F (1998)
Cooling Degree Days 17    
Growing Degree Days 32 (Base 50)    
Moisture  
Dew Point 73 °F    
Average Humidity 85    
Maximum Humidity 97    
Minimum Humidity 52    
Precipitation  
Precipitation 0.59 in - - ()
Sea Level Pressure  
Sea Level Pressure 29.93 in    
Wind  
Wind Speed 3 mph (SSW)    
Max Wind Speed 17 mph    
Max Gust Speed 18 mph    
Visibility 6 miles    
Events Fog , Rain , Thunderstorm    
Averages and records for this station are not official NWS values.
T = Trace of Precipitation, MM = Missing Value Source: NWS Daily Summary

Daily Weather History Graph

Daily Weather History Graph

Search for Another Location

Airport or City:

Astronomy

Aug. 21, 2019 Rise Set
Actual Time 6:16 AM EDT 7:47 PM EDT
Civil Twilight 5:48 AM EDT 8:16 PM EDT
Nautical Twilight 5:13 AM EDT 8:50 PM EDT
Astronomical Twilight 4:37 AM EDT 9:26 PM EDT
Moon 11:04 PM EDT (8/21) 11:49 AM EDT (8/21)
Length of Visible Light 14h 28m
Length of Day
13h 31m
Waning Gibbous, 69% of the Moon is Illuminated
Aug 21
Waning Gibbous
Aug 23
Last Quarter
Aug 30
New
Sep 5
First Quarter
Sep 14
Full

Hourly Weather History & Observations

Time (EDT) Temp. Heat Index Dew Point Humidity Pressure Visibility Wind Dir Wind Speed Gust Speed Precip Events Conditions
12:39 AM 75.0 °F - 73.0 °F 94% 30.04 in 7.0 mi Calm Calm - N/A   Scattered Clouds
12:51 AM 75.2 °F - 73.4 °F 94% 30.04 in 7.0 mi Calm Calm - N/A   Mostly Cloudy
12:54 AM 75.9 °F - 73.9 °F 94% 30.04 in 7.0 mi Variable 3.5 mph - N/A   Mostly Cloudy
1:22 AM 75.9 °F - 73.9 °F 94% 30.04 in 7.0 mi Variable 3.5 mph - N/A   Overcast
1:33 AM 75.9 °F - 73.9 °F 94% 30.03 in 6.0 mi Calm Calm - N/A   Mostly Cloudy
1:41 AM 75.9 °F - 73.9 °F 94% 30.02 in 6.0 mi Calm Calm - N/A   Mostly Cloudy
1:54 AM 75.9 °F - 73.9 °F 94% 30.02 in 5.0 mi Calm Calm - N/A   Partly Cloudy
2:54 AM 73.9 °F - 73.0 °F 97% 30.01 in 3.0 mi Calm Calm - N/A   Clear
4:21 AM 73.9 °F - 73.0 °F 97% 29.98 in 2.5 mi Calm Calm - N/A   Partly Cloudy
4:54 AM 73.9 °F - 73.0 °F 97% 29.98 in 2.0 mi Calm Calm - N/A   Scattered Clouds
5:05 AM 73.9 °F - 73.0 °F 97% 29.98 in 1.5 mi Calm Calm - N/A   Mostly Cloudy
5:14 AM 73.9 °F - 73.0 °F 97% 29.97 in 0.8 mi Calm Calm - N/A   Mist
5:43 AM 73.0 °F - 72.0 °F 96% 29.98 in 0.8 mi Calm Calm - N/A   Mist
5:54 AM 73.0 °F - 72.0 °F 96% 29.97 in 0.5 mi Calm Calm - N/A Fog Fog
6:47 AM 73.9 °F - 72.0 °F 93% 29.99 in 1.2 mi Calm Calm - N/A   Mostly Cloudy
6:54 AM 73.9 °F - 73.0 °F 97% 29.99 in 2.5 mi North - - N/A   Scattered Clouds
7:04 AM 73.9 °F - 73.0 °F 97% 29.99 in 3.0 mi Calm Calm - N/A   Partly Cloudy
7:54 AM 75.0 °F - 73.9 °F 96% 29.99 in 3.0 mi Variable 4.6 mph - N/A   Overcast
8:39 AM 77.0 °F - 73.9 °F 90% 29.98 in 8.0 mi Calm Calm - N/A   Scattered Clouds
8:54 AM 79.0 °F - 73.0 °F 82% 29.97 in 10.0 mi Variable 5.8 mph - N/A   Partly Cloudy
9:54 AM 82.0 °F 86.7 °F 72.0 °F 71% 29.97 in 10.0 mi Variable 4.6 mph - N/A   Scattered Clouds
10:06 AM 82.0 °F 86.3 °F 71.1 °F 69% 29.97 in 10.0 mi Variable 6.9 mph - N/A   Mostly Cloudy
10:54 AM 82.9 °F 88.0 °F 72.0 °F 69% 29.96 in 10.0 mi SW 6.9 mph - N/A   Mostly Cloudy
11:29 AM 84.9 °F 90.7 °F 72.0 °F 65% 29.95 in 10.0 mi Variable 6.9 mph - N/A   Scattered Clouds
11:54 AM 86.0 °F 92.2 °F 72.0 °F 63% 29.95 in 10.0 mi WSW 9.2 mph - N/A   Mostly Cloudy
12:54 PM 86.0 °F 91.5 °F 71.1 °F 61% 29.92 in 10.0 mi Variable 6.9 mph 18.4 mph N/A   Scattered Clouds
1:54 PM 89.1 °F 96.0 °F 72.0 °F 57% 29.89 in 10.0 mi SW 8.1 mph 16.1 mph N/A   Scattered Clouds
2:54 PM 89.1 °F 97.0 °F 73.0 °F 59% 29.88 in 10.0 mi Variable 5.8 mph - N/A   Scattered Clouds
3:54 PM 91.0 °F 97.6 °F 71.1 °F 52% 29.87 in 10.0 mi Variable 4.6 mph - N/A   Mostly Cloudy
4:54 PM 90.0 °F 97.9 °F 73.0 °F 57% 29.86 in 10.0 mi SSW 9.2 mph 18.4 mph N/A   Clear
5:54 PM 87.1 °F 93.6 °F 72.0 °F 61% 29.86 in 10.0 mi South 6.9 mph - N/A   Scattered Clouds
6:09 PM 86.0 °F 92.2 °F 72.0 °F 63% 29.86 in 10.0 mi South 4.6 mph - N/A Thunderstorm Mostly Cloudy
6:31 PM 86.0 °F 91.5 °F 71.1 °F 61% 29.86 in 10.0 mi Variable 4.6 mph - N/A Thunderstorm Thunderstorm
6:43 PM 80.1 °F 84.2 °F 73.0 °F 79% 29.87 in 8.0 mi NNW 12.7 mph - 0.01 in Rain Light Rain
6:51 PM 77.0 °F - 73.4 °F 89% 29.87 in 2.5 mi NW 15.0 mph 18.4 mph 0.03 in Rain , Thunderstorm Rain
6:52 PM 77.0 °F - 73.9 °F 90% 29.87 in 2.0 mi NW 17.3 mph - 0.03 in Rain , Thunderstorm Rain
6:59 PM 77.0 °F - 73.9 °F 90% 29.87 in 1.8 mi NNW 12.7 mph - 0.03 in Rain , Thunderstorm Rain
7:07 PM 75.9 °F - 73.9 °F 94% 29.88 in 2.0 mi WNW 4.6 mph - 0.07 in Rain Rain
7:14 PM 75.9 °F - 75.0 °F 97% 29.87 in 1.5 mi Variable 3.5 mph - 0.10 in Rain Rain
7:29 PM 75.9 °F - 73.9 °F 94% 29.87 in 3.0 mi Calm Calm - 0.16 in Rain Light Rain
7:44 PM 75.9 °F - 73.9 °F 94% 29.89 in 1.2 mi South 5.8 mph - 0.19 in Rain Light Rain
7:51 PM 75.2 °F - 73.4 °F 94% 29.88 in 0.5 mi SSE 8.1 mph - 0.26 in Fog , Rain Heavy Rain
7:54 PM 75.0 °F - 73.0 °F 94% 29.88 in 0.5 mi SSE 8.1 mph - 0.29 in Fog , Rain Heavy Rain
7:57 PM 75.0 °F - 73.0 °F 94% 29.88 in 1.0 mi SSE 8.1 mph - 0.02 in Rain Light Rain
8:00 PM 75.0 °F - 72.0 °F 90% 29.87 in 2.5 mi SE 9.2 mph - 0.04 in Rain , Thunderstorm Light Rain
8:07 PM 73.9 °F - 71.1 °F 91% 29.88 in 10.0 mi SSE 8.1 mph - 0.09 in Thunderstorm Mostly Cloudy
8:32 PM 75.0 °F - 73.0 °F 94% 29.88 in 6.0 mi Variable 4.6 mph - 0.15 in Rain Light Rain
8:54 PM 75.0 °F - 73.0 °F 94% 29.88 in 10.0 mi South 3.5 mph - 0.19 in   Mostly Cloudy
9:54 PM 75.9 °F - 73.0 °F 91% 29.88 in 10.0 mi Variable 4.6 mph - N/A   Clear
11:19 PM 73.9 °F - 70.0 °F 87% 29.89 in 2.5 mi SW 6.9 mph - 0.01 in Rain Heavy Rain
11:54 PM 72.0 °F - 70.0 °F 93% 29.88 in 10.0 mi SSW 3.5 mph - 0.08 in   Unknown